Time,TemperatureF,DewpointF,PressureIn,WindDirection,WindDirectionDegrees,WindSpeedMPH,WindSpeedGustMPH,Humidity,HourlyPrecipIn,Conditions,Clouds,dailyrainin,SoftwareType,DateUTC
2014-01-22 00:02:00,31.9,24.4,29.82,WSW,248,0.0,0.0,73,0.00,,,0.00,TxWx,2014-01-22 06:02:00,
2014-01-22 00:07:00,31.4,24.6,29.82,WSW,248,0.0,0.0,75,0.00,,,0.00,TxWx,2014-01-22 06:07:00,
2014-01-22 00:12:00,31.0,25.0,29.82,SW,225,0.0,0.0,78,0.00,,,0.00,TxWx,2014-01-22 06:12:00,
2014-01-22 00:17:00,30.9,25.0,29.82,WSW,248,0.0,0.0,78,0.00,,,0.00,TxWx,2014-01-22 06:17:00,
2014-01-22 00:22:00,30.8,24.7,29.82,WSW,248,0.0,0.0,77,0.00,,,0.00,TxWx,2014-01-22 06:22:00,
2014-01-22 00:26:00,30.6,24.9,29.82,WSW,248,0.0,0.0,79,0.00,,,0.00,TxWx,2014-01-22 06:26:00,
2014-01-22 00:31:00,30.3,24.9,29.82,WSW,248,0.0,0.0,80,0.00,,,0.00,TxWx,2014-01-22 06:31:00,
2014-01-22 00:36:00,30.0,25.2,29.82,WSW,248,0.0,0.0,82,0.00,,,0.00,TxWx,2014-01-22 06:36:00,
2014-01-22 00:41:00,29.8,24.9,29.81,WSW,248,0.0,0.0,81,0.00,,,0.00,TxWx,2014-01-22 06:41:00,
2014-01-22 00:46:00,29.5,24.7,29.81,WSW,248,0.0,0.0,82,0.00,,,0.00,TxWx,2014-01-22 06:46:00,
2014-01-22 00:51:00,29.3,25.6,29.81,SW,225,0.0,0.0,85,0.00,,,0.00,TxWx,2014-01-22 06:51:00,
2014-01-22 00:56:00,29.4,25.9,29.81,SW,225,0.0,0.0,86,0.00,,,0.00,TxWx,2014-01-22 06:56:00,
2014-01-22 01:01:00,29.4,25.9,29.81,SW,225,0.0,0.0,86,0.00,,,0.00,TxWx,2014-01-22 07:01:00,
2014-01-22 01:06:00,29.3,24.7,29.81,SW,225,0.0,0.0,82,0.00,,,0.00,TxWx,2014-01-22 07:06:00,
2014-01-22 01:11:00,29.2,23.7,29.81,SSE,158,0.0,0.0,79,0.00,,,0.00,TxWx,2014-01-22 07:11:00,
2014-01-22 01:16:00,29.5,23.4,29.81,South,180,0.0,0.0,77,0.00,,,0.00,TxWx,2014-01-22 07:16:00,
2014-01-22 01:21:00,29.7,23.3,29.81,SE,135,0.0,0.0,76,0.00,,,0.00,TxWx,2014-01-22 07:21:00,
2014-01-22 01:26:00,29.7,23.4,29.81,SE,135,0.0,0.0,77,0.00,,,0.00,TxWx,2014-01-22 07:26:00,
2014-01-22 01:31:00,29.6,23.9,29.80,South,180,0.0,0.0,78,0.00,,,0.00,TxWx,2014-01-22 07:31:00,
2014-01-22 01:36:00,29.4,24.2,29.80,SSE,158,0.0,0.0,80,0.00,,,0.00,TxWx,2014-01-22 07:36:00,
2014-01-22 01:41:00,29.1,24.3,29.80,SSE,158,0.0,0.0,82,0.00,,,0.00,TxWx,2014-01-22 07:41:00,
2014-01-22 01:46:00,28.7,24.3,29.80,SSE,158,0.0,0.0,83,0.00,,,0.00,TxWx,2014-01-22 07:46:00,
2014-01-22 01:51:00,28.7,24.1,29.80,South,180,0.0,0.0,82,0.00,,,0.00,TxWx,2014-01-22 07:51:00,
2014-01-22 01:56:00,28.7,24.1,29.79,South,180,0.0,0.0,82,0.00,,,0.00,TxWx,2014-01-22 07:56:00,
2014-01-22 02:01:00,28.6,24.6,29.79,South,180,0.0,0.0,85,0.00,,,0.00,TxWx,2014-01-22 08:01:00,
2014-01-22 02:06:00,28.9,24.3,29.79,SE,135,0.0,0.0,82,0.00,,,0.00,TxWx,2014-01-22 08:06:00,
2014-01-22 02:11:00,29.3,24.2,29.79,SSE,158,0.0,0.0,80,0.00,,,0.00,TxWx,2014-01-22 08:11:00,
2014-01-22 02:16:00,30.3,24.6,29.79,SSE,158,0.0,0.0,78,0.00,,,0.00,TxWx,2014-01-22 08:16:00,
2014-01-22 02:21:00,31.7,23.9,29.79,South,180,0.0,0.0,72,0.00,,,0.00,TxWx,2014-01-22 08:21:00,
2014-01-22 02:26:00,31.9,23.3,29.78,SE,135,2.5,2.5,70,0.00,,,0.00,TxWx,2014-01-22 08:26:00,
2014-01-22 02:31:00,32.7,23.0,29.78,ESE,113,0.0,0.0,67,0.00,,,0.00,TxWx,2014-01-22 08:31:00,
2014-01-22 02:36:00,32.8,22.3,29.78,SSE,158,0.6,0.0,64,0.00,,,0.00,TxWx,2014-01-22 08:36:00,
2014-01-22 02:41:00,32.7,22.7,29.78,SSE,158,0.6,0.0,66,0.00,,,0.00,TxWx,2014-01-22 08:41:00,
2014-01-22 02:46:00,32.3,22.5,29.78,ESE,113,0.6,0.0,66,0.00,,,0.00,TxWx,2014-01-22 08:46:00,
2014-01-22 02:51:00,32.1,22.2,29.77,SSE,158,0.6,1.0,66,0.00,,,0.00,TxWx,2014-01-22 08:51:00,
2014-01-22 02:56:00,32.2,21.8,29.78,SE,135,0.6,0.0,64,0.00,,,0.00,TxWx,2014-01-22 08:56:00,
2014-01-22 03:01:00,32.2,22.3,29.78,SSE,158,0.0,0.0,66,0.00,,,0.00,TxWx,2014-01-22 09:01:00,
2014-01-22 03:06:00,32.2,22.4,29.78,ESE,113,1.2,1.2,66,0.00,,,0.00,TxWx,2014-01-22 09:06:00,
2014-01-22 03:12:00,32.4,21.6,29.78,South,180,0.6,1.0,64,0.00,,,0.00,TxWx,2014-01-22 09:12:00,
2014-01-22 03:17:00,32.9,21.3,29.77,South,180,0.0,0.0,62,0.00,,,0.00,TxWx,2014-01-22 09:17:00,
2014-01-22 03:22:00,33.1,21.5,29.77,SSE,158,0.0,0.0,62,0.00,,,0.00,TxWx,2014-01-22 09:22:00,
2014-01-22 03:27:00,33.2,21.2,29.77,South,180,0.0,0.0,60,0.00,,,0.00,TxWx,2014-01-22 09:27:00,
2014-01-22 03:32:00,33.0,21.5,29.76,South,180,0.0,0.0,62,0.00,,,0.00,TxWx,2014-01-22 09:32:00,
2014-01-22 03:37:00,33.3,20.7,29.76,SE,135,0.6,0.0,59,0.00,,,0.00,TxWx,2014-01-22 09:37:00,
2014-01-22 03:42:00,33.3,20.5,29.77,SSE,158,0.0,0.0,59,0.00,,,0.00,TxWx,2014-01-22 09:42:00,
2014-01-22 03:47:00,32.9,21.2,29.77,SSE,158,0.6,0.0,61,0.00,,,0.00,TxWx,2014-01-22 09:47:00,
2014-01-22 03:52:00,32.6,20.8,29.77,SE,135,0.0,0.0,61,0.00,,,0.00,TxWx,2014-01-22 09:52:00,
2014-01-22 03:57:00,32.4,20.3,29.77,SSE,158,0.0,0.0,60,0.00,,,0.00,TxWx,2014-01-22 09:57:00,
2014-01-22 04:02:00,32.3,20.5,29.77,ESE,113,0.6,0.0,61,0.00,,,0.00,TxWx,2014-01-22 10:02:00,
2014-01-22 04:07:00,32.6,20.5,29.76,SSE,158,0.0,0.0,60,0.00,,,0.00,TxWx,2014-01-22 10:07:00,
2014-01-22 04:12:00,32.1,21.1,29.76,SSE,158,0.0,0.0,63,0.00,,,0.00,TxWx,2014-01-22 10:12:00,
2014-01-22 04:17:00,32.0,20.5,29.76,SSE,158,0.0,0.0,61,0.00,,,0.00,TxWx,2014-01-22 10:17:00,
2014-01-22 04:22:00,32.1,21.0,29.76,SSE,158,0.0,0.0,63,0.00,,,0.00,TxWx,2014-01-22 10:22:00,
2014-01-22 04:27:00,31.8,21.7,29.76,SE,135,0.0,0.0,65,0.00,,,0.00,TxWx,2014-01-22 10:27:00,
2014-01-22 04:32:00,32.4,21.8,29.76,SE,135,0.0,0.0,64,0.00,,,0.00,TxWx,2014-01-22 10:32:00,
2014-01-22 04:37:00,32.4,22.0,29.76,South,180,0.0,0.0,65,0.00,,,0.00,TxWx,2014-01-22 10:37:00,
2014-01-22 04:42:00,32.8,22.0,29.76,SSE,158,0.0,0.0,64,0.00,,,0.00,TxWx,2014-01-22 10:42:00,
2014-01-22 04:47:00,32.4,22.6,29.76,South,180,0.0,0.0,66,0.00,,,0.00,TxWx,2014-01-22 10:47:00,
2014-01-22 04:52:00,32.2,22.8,29.75,South,180,0.0,0.0,67,0.00,,,0.00,TxWx,2014-01-22 10:52:00,
2014-01-22 04:57:00,32.0,23.1,29.76,South,180,0.0,0.0,69,0.00,,,0.00,TxWx,2014-01-22 10:57:00,
2014-01-22 05:02:00,31.7,23.5,29.76,South,180,0.0,0.0,71,0.00,,,0.00,TxWx,2014-01-22 11:02:00,
2014-01-22 05:07:00,31.2,23.7,29.76,South,180,0.0,0.0,73,0.00,,,0.00,TxWx,2014-01-22 11:07:00,
2014-01-22 05:12:00,31.4,22.5,29.76,South,180,0.0,0.0,69,0.00,,,0.00,TxWx,2014-01-22 11:12:00,
2014-01-22 05:17:00,31.5,23.5,29.76,South,180,0.0,0.0,71,0.00,,,0.00,TxWx,2014-01-22 11:17:00,
2014-01-22 05:22:00,30.9,23.5,29.76,SSE,158,0.0,0.0,73,0.00,,,0.00,TxWx,2014-01-22 11:22:00,
2014-01-22 05:27:00,30.7,23.7,29.75,SSE,158,0.0,0.0,74,0.00,,,0.00,TxWx,2014-01-22 11:27:00,
2014-01-22 05:32:00,31.0,23.5,29.76,South,180,0.0,0.0,73,0.00,,,0.00,TxWx,2014-01-22 11:32:00,
2014-01-22 05:37:00,31.5,23.5,29.76,SSW,203,0.0,0.0,71,0.00,,,0.00,TxWx,2014-01-22 11:37:00,
2014-01-22 05:42:00,31.3,23.8,29.76,SSW,203,0.0,0.0,73,0.00,,,0.00,TxWx,2014-01-22 11:42:00,
2014-01-22 05:47:00,31.5,23.5,29.76,South,180,0.0,0.0,71,0.00,,,0.00,TxWx,2014-01-22 11:47:00,
2014-01-22 05:52:00,31.4,23.7,29.76,South,180,0.0,0.0,72,0.00,,,0.00,TxWx,2014-01-22 11:52:00,
2014-01-22 05:57:00,31.3,23.7,29.76,SSW,203,0.0,0.0,73,0.00,,,0.00,TxWx,2014-01-22 11:57:00,
2014-01-22 06:02:00,31.1,23.8,29.76,SSW,203,0.0,0.0,74,0.00,,,0.00,TxWx,2014-01-22 12:02:00,
2014-01-22 06:07:00,31.1,23.7,29.76,SW,225,0.0,0.0,73,0.00,,,0.00,TxWx,2014-01-22 12:07:00,
2014-01-22 06:12:00,30.7,24.2,29.76,SSW,203,0.0,0.0,76,0.00,,,0.00,TxWx,2014-01-22 12:12:00,
2014-01-22 06:17:00,30.2,24.1,29.76,South,180,0.0,0.0,77,0.00,,,0.00,TxWx,2014-01-22 12:17:00,
2014-01-22 06:22:00,30.2,24.3,29.76,South,180,0.0,0.0,78,0.00,,,0.00,TxWx,2014-01-22 12:22:00,
2014-01-22 06:27:00,30.2,24.0,29.76,SSE,158,0.0,0.0,77,0.00,,,0.00,TxWx,2014-01-22 12:27:00,
2014-01-22 06:32:00,30.2,24.1,29.76,SSE,158,0.0,0.0,77,0.00,,,0.00,TxWx,2014-01-22 12:32:00,
2014-01-22 06:37:00,30.0,24.2,29.76,SSW,203,0.0,0.0,78,0.00,,,0.00,TxWx,2014-01-22 12:37:00,
2014-01-22 06:42:00,30.4,23.6,29.76,SSW,203,0.0,0.0,75,0.00,,,0.00,TxWx,2014-01-22 12:42:00,
2014-01-22 06:47:00,30.5,23.8,29.76,South,180,0.6,0.0,75,0.00,,,0.00,TxWx,2014-01-22 12:47:00,
2014-01-22 06:52:00,30.8,23.5,29.76,SSW,203,0.0,0.0,74,0.00,,,0.00,TxWx,2014-01-22 12:52:00,
2014-01-22 06:57:00,30.7,24.0,29.76,SSW,203,0.0,0.0,75,0.00,,,0.00,TxWx,2014-01-22 12:57:00,
2014-01-22 07:02:00,30.4,24.2,29.76,SW,225,0.0,0.0,77,0.00,,,0.00,TxWx,2014-01-22 13:02:00,
2014-01-22 07:07:00,30.2,23.9,29.76,SW,225,0.0,0.0,77,0.00,,,0.00,TxWx,2014-01-22 13:07:00,
2014-01-22 07:12:00,29.7,23.9,29.76,SW,225,0.0,0.0,78,0.00,,,0.00,TxWx,2014-01-22 13:12:00,
2014-01-22 07:17:00,29.3,24.1,29.76,SW,225,0.0,0.0,80,0.00,,,0.00,TxWx,2014-01-22 13:17:00,
2014-01-22 07:22:00,29.2,24.1,29.76,SW,225,0.0,0.0,81,0.00,,,0.00,TxWx,2014-01-22 13:22:00,
2014-01-22 07:27:00,29.1,23.9,29.76,SSW,203,0.0,0.0,80,0.00,,,0.00,TxWx,2014-01-22 13:27:00,
2014-01-22 07:32:00,29.3,23.7,29.76,SW,225,0.0,0.0,79,0.00,,,0.00,TxWx,2014-01-22 13:32:00,
2014-01-22 07:37:00,29.4,24.1,29.76,SSW,203,0.0,0.0,80,0.00,,,0.00,TxWx,2014-01-22 13:37:00,
2014-01-22 07:42:00,30.0,24.0,29.76,SSW,203,0.0,0.0,78,0.00,,,0.00,TxWx,2014-01-22 13:42:00,
2014-01-22 07:47:00,30.7,24.1,29.76,WSW,248,0.0,0.0,76,0.00,,,0.00,TxWx,2014-01-22 13:47:00,
2014-01-22 07:52:00,31.4,23.9,29.76,WSW,248,0.0,0.0,73,0.00,,,0.00,TxWx,2014-01-22 13:52:00,
2014-01-22 07:57:00,32.1,25.0,29.76,WSW,248,0.0,0.0,74,0.00,,,0.00,TxWx,2014-01-22 13:57:00,
2014-01-22 08:02:00,32.6,25.2,29.77,South,180,0.0,0.0,73,0.00,,,0.00,TxWx,2014-01-22 14:02:00,
2014-01-22 08:07:00,33.2,24.4,29.77,South,180,0.0,0.0,69,0.00,,,0.00,TxWx,2014-01-22 14:07:00,
2014-01-22 08:12:00,33.8,23.8,29.77,SW,225,0.0,0.0,66,0.00,,,0.00,TxWx,2014-01-22 14:12:00,
2014-01-22 08:17:00,34.6,23.1,29.77,SW,225,1.7,1.7,62,0.00,,,0.00,TxWx,2014-01-22 14:17:00,
2014-01-22 08:21:00,35.0,22.5,29.77,WSW,248,1.2,1.2,59,0.00,,,0.00,TxWx,2014-01-22 14:21:00,
2014-01-22 08:27:00,35.5,22.6,29.77,South,180,0.0,0.0,58,0.00,,,0.00,TxWx,2014-01-22 14:27:00,
2014-01-22 08:32:00,36.4,23.2,29.77,WSW,248,0.0,0.0,58,0.00,,,0.00,TxWx,2014-01-22 14:32:00,
2014-01-22 08:37:00,36.7,22.3,29.77,WSW,248,1.7,2.0,55,0.00,,,0.00,TxWx,2014-01-22 14:37:00,
2014-01-22 08:42:00,37.3,22.6,29.78,WSW,248,2.5,2.5,54,0.00,,,0.00,TxWx,2014-01-22 14:42:00,
2014-01-22 08:47:00,37.2,21.9,29.78,South,180,0.0,0.0,53,0.00,,,0.00,TxWx,2014-01-22 14:47:00,
2014-01-22 08:52:00,37.6,22.1,29.78,South,180,1.7,3.0,53,0.00,,,0.00,TxWx,2014-01-22 14:52:00,
2014-01-22 08:57:00,38.3,22.8,29.78,SW,225,0.0,0.0,53,0.00,,,0.00,TxWx,2014-01-22 14:57:00,
2014-01-22 09:02:00,38.7,22.7,29.78,SW,225,3.7,3.7,52,0.00,,,0.00,TxWx,2014-01-22 15:02:00,
2014-01-22 09:07:00,38.9,22.5,29.78,WSW,248,1.2,1.2,51,0.00,,,0.00,TxWx,2014-01-22 15:07:00,
2014-01-22 09:12:00,38.8,21.9,29.78,SW,225,1.7,1.7,50,0.00,,,0.00,TxWx,2014-01-22 15:12:00,
2014-01-22 09:17:00,39.1,22.0,29.78,SSW,203,3.1,3.1,50,0.00,,,0.00,TxWx,2014-01-22 15:17:00,
2014-01-22 09:22:00,39.6,22.6,29.79,SW,225,3.7,4.0,50,0.00,,,0.00,TxWx,2014-01-22 15:22:00,
2014-01-22 09:27:00,40.6,23.4,29.79,SSW,203,2.5,2.5,50,0.00,,,0.00,TxWx,2014-01-22 15:27:00,
2014-01-22 09:32:00,40.4,22.7,29.79,WSW,248,1.2,2.0,48,0.00,,,0.00,TxWx,2014-01-22 15:32:00,
2014-01-22 09:37:00,41.3,23.7,29.79,West,270,0.0,0.0,49,0.00,,,0.00,TxWx,2014-01-22 15:37:00,
2014-01-22 09:42:00,41.7,23.6,29.79,WSW,248,2.5,3.0,48,0.00,,,0.00,TxWx,2014-01-22 15:42:00,
2014-01-22 09:47:00,42.0,23.6,29.79,West,270,1.2,1.2,47,0.00,,,0.00,TxWx,2014-01-22 15:47:00,
2014-01-22 09:52:00,42.3,23.8,29.79,SW,225,1.7,1.7,47,0.00,,,0.00,TxWx,2014-01-22 15:52:00,
2014-01-22 09:57:00,43.4,24.6,29.79,SW,225,4.9,4.9,47,0.00,,,0.00,TxWx,2014-01-22 15:57:00,
2014-01-22 10:02:00,43.5,24.1,29.79,South,180,1.2,1.2,46,0.00,,,0.00,TxWx,2014-01-22 16:02:00,
2014-01-22 10:07:00,44.7,24.4,29.79,East,90,1.2,1.2,44,0.00,,,0.00,TxWx,2014-01-22 16:07:00,
2014-01-22 10:12:00,45.7,24.0,29.79,West,270,1.7,1.7,42,0.00,,,0.00,TxWx,2014-01-22 16:12:00,
2014-01-22 10:17:00,46.1,23.4,29.80,WSW,248,0.6,1.0,40,0.00,,,0.00,TxWx,2014-01-22 16:17:00,
2014-01-22 10:22:00,47.0,24.2,29.80,WSW,248,3.1,3.1,40,0.00,,,0.00,TxWx,2014-01-22 16:22:00,
2014-01-22 10:27:00,47.1,24.1,29.80,WSW,248,0.6,0.0,40,0.00,,,0.00,TxWx,2014-01-22 16:27:00,
2014-01-22 10:32:00,48.2,24.6,29.80,WSW,248,1.7,1.7,39,0.00,,,0.00,TxWx,2014-01-22 16:32:00,
2014-01-22 10:37:00,47.6,23.4,29.79,WSW,248,3.1,3.1,38,0.00,,,0.00,TxWx,2014-01-22 16:37:00,
2014-01-22 10:42:00,48.1,24.2,29.79,SW,225,5.5,6.0,38,0.00,,,0.00,TxWx,2014-01-22 16:42:00,
2014-01-22 10:47:00,48.0,24.0,29.79,NW,315,3.1,3.1,38,0.00,,,0.00,TxWx,2014-01-22 16:47:00,
2014-01-22 10:52:00,48.0,23.6,29.79,West,270,7.4,7.4,38,0.00,,,0.00,TxWx,2014-01-22 16:52:00,
2014-01-22 10:57:00,48.9,24.5,29.79,West,270,3.1,3.1,38,0.00,,,0.00,TxWx,2014-01-22 16:57:00,
2014-01-22 11:02:00,49.5,24.8,29.79,SSW,203,1.7,2.0,37,0.00,,,0.00,TxWx,2014-01-22 17:02:00,
2014-01-22 11:07:00,49.6,24.7,29.79,WSW,248,4.3,4.3,37,0.00,,,0.00,TxWx,2014-01-22 17:07:00,
2014-01-22 11:12:00,50.8,25.7,29.78,WSW,248,1.2,1.2,37,0.00,,,0.00,TxWx,2014-01-22 17:12:00,
2014-01-22 11:17:00,50.8,25.2,29.78,WSW,248,3.7,3.7,36,0.00,,,0.00,TxWx,2014-01-22 17:17:00,
2014-01-22 11:22:00,51.4,25.8,29.78,SSW,203,1.2,1.2,36,0.00,,,0.00,TxWx,2014-01-22 17:22:00,
2014-01-22 11:27:00,52.0,26.5,29.78,WSW,248,1.7,1.7,36,0.00,,,0.00,TxWx,2014-01-22 17:27:00,
2014-01-22 11:32:00,52.0,25.5,29.77,WSW,248,1.2,1.2,35,0.00,,,0.00,TxWx,2014-01-22 17:32:00,
2014-01-22 11:37:00,53.0,26.1,29.77,West,270,3.1,3.1,35,0.00,,,0.00,TxWx,2014-01-22 17:37:00,
2014-01-22 11:42:00,53.3,26.9,29.77,ESE,113,1.7,2.0,35,0.00,,,0.00,TxWx,2014-01-22 17:42:00,
2014-01-22 11:47:00,54.0,27.2,29.76,WSW,248,4.9,4.9,35,0.00,,,0.00,TxWx,2014-01-22 17:47:00,
2014-01-22 11:52:00,54.9,27.7,29.76,WNW,293,4.3,4.3,34,0.00,,,0.00,TxWx,2014-01-22 17:52:00,
2014-01-22 11:57:00,54.2,26.6,29.76,SW,225,2.5,2.5,34,0.00,,,0.00,TxWx,2014-01-22 17:57:00,
2014-01-22 12:02:00,55.4,27.8,29.76,West,270,0.6,1.0,34,0.00,,,0.00,TxWx,2014-01-22 18:02:00,
2014-01-22 12:07:00,56.0,27.3,29.75,WSW,248,0.6,1.0,33,0.00,,,0.00,TxWx,2014-01-22 18:07:00,
2014-01-22 12:12:00,56.6,27.9,29.75,SW,225,2.5,3.0,33,0.00,,,0.00,TxWx,2014-01-22 18:12:00,
2014-01-22 12:17:00,56.4,27.3,29.75,NW,315,2.5,2.5,32,0.00,,,0.00,TxWx,2014-01-22 18:17:00,
2014-01-22 12:22:00,57.7,28.7,29.74,SE,135,2.5,3.0,32,0.00,,,0.00,TxWx,2014-01-22 18:22:00,
2014-01-22 12:27:00,58.1,28.3,29.74,SW,225,1.2,1.2,31,0.00,,,0.00,TxWx,2014-01-22 18:27:00,
2014-01-22 12:32:00,57.9,27.3,29.73,WSW,248,4.3,4.3,30,0.00,,,0.00,TxWx,2014-01-22 18:32:00,
2014-01-22 12:37:00,58.4,28.2,29.73,NW,315,2.5,2.5,31,0.00,,,0.00,TxWx,2014-01-22 18:37:00,
2014-01-22 12:42:00,59.1,28.9,29.72,South,180,2.5,2.5,31,0.00,,,0.00,TxWx,2014-01-22 18:42:00,
2014-01-22 12:47:00,59.4,28.1,29.72,SSW,203,1.2,1.2,30,0.00,,,0.00,TxWx,2014-01-22 18:47:00,
2014-01-22 12:52:00,60.1,28.8,29.71,WNW,293,1.7,2.0,30,0.00,,,0.00,TxWx,2014-01-22 18:52:00,
2014-01-22 12:57:00,59.4,27.8,29.71,WNW,293,9.2,9.2,29,0.00,,,0.00,TxWx,2014-01-22 18:57:00,
2014-01-22 13:02:00,60.3,29.3,29.71,SSW,203,2.5,3.0,30,0.00,,,0.00,TxWx,2014-01-22 19:02:00,
2014-01-22 13:07:00,60.5,29.0,29.71,WSW,248,3.1,3.1,30,0.00,,,0.00,TxWx,2014-01-22 19:07:00,
2014-01-22 13:12:00,60.1,28.6,29.70,South,180,1.2,1.2,30,0.00,,,0.00,TxWx,2014-01-22 19:12:00,
2014-01-22 13:17:00,60.2,29.0,29.70,SSW,203,3.1,3.1,30,0.00,,,0.00,TxWx,2014-01-22 19:17:00,
2014-01-22 13:22:00,61.5,30.1,29.70,SW,225,3.1,3.1,30,0.00,,,0.00,TxWx,2014-01-22 19:22:00,
2014-01-22 13:27:00,62.3,29.6,29.70,South,180,3.1,3.1,29,0.00,,,0.00,TxWx,2014-01-22 19:27:00,
2014-01-22 13:32:00,61.8,29.1,29.69,WNW,293,5.5,5.5,28,0.00,,,0.00,TxWx,2014-01-22 19:32:00,
2014-01-22 13:37:00,61.3,29.1,29.69,NW,315,3.7,3.7,29,0.00,,,0.00,TxWx,2014-01-22 19:37:00,
2014-01-22 13:42:00,60.9,28.7,29.69,WNW,293,6.1,6.1,29,0.00,,,0.00,TxWx,2014-01-22 19:42:00,
2014-01-22 13:47:00,61.4,29.1,29.69,SW,225,3.1,3.1,29,0.00,,,0.00,TxWx,2014-01-22 19:47:00,
2014-01-22 13:52:00,61.2,28.8,29.69,WNW,293,0.6,0.0,29,0.00,,,0.00,TxWx,2014-01-22 19:52:00,
2014-01-22 13:57:00,61.7,29.2,29.69,WNW,293,4.9,4.9,29,0.00,,,0.00,TxWx,2014-01-22 19:57:00,
2014-01-22 14:02:00,61.9,29.2,29.68,West,270,3.1,3.1,29,0.00,,,0.00,TxWx,2014-01-22 20:02:00,
2014-01-22 14:07:00,61.9,29.4,29.68,WSW,248,2.5,3.0,29,0.00,,,0.00,TxWx,2014-01-22 20:07:00,
2014-01-22 14:12:00,62.4,30.3,29.68,NW,315,3.1,3.1,29,0.00,,,0.00,TxWx,2014-01-22 20:12:00,
2014-01-22 14:17:00,62.4,29.7,29.68,NW,315,4.3,4.3,28,0.00,,,0.00,TxWx,2014-01-22 20:17:00,
2014-01-22 14:22:00,62.7,29.0,29.68,WSW,248,4.3,4.3,27,0.00,,,0.00,TxWx,2014-01-22 20:22:00,
2014-01-22 14:27:00,63.1,29.5,29.67,WSW,248,3.7,3.7,28,0.00,,,0.00,TxWx,2014-01-22 20:27:00,
2014-01-22 14:32:00,63.6,29.7,29.67,SW,225,2.5,2.5,27,0.00,,,0.00,TxWx,2014-01-22 20:32:00,
2014-01-22 14:37:00,64.0,30.3,29.67,NNW,338,6.1,7.0,28,0.00,,,0.00,TxWx,2014-01-22 20:37:00,
2014-01-22 14:42:00,63.7,30.0,29.67,SSW,203,5.5,6.0,28,0.00,,,0.00,TxWx,2014-01-22 20:42:00,
2014-01-22 14:47:00,63.7,30.6,29.67,West,270,3.1,3.1,28,0.00,,,0.00,TxWx,2014-01-22 20:47:00,
2014-01-22 14:52:00,63.0,29.1,29.67,WNW,293,8.0,8.0,27,0.00,,,0.00,TxWx,2014-01-22 20:52:00,
2014-01-22 14:57:00,63.3,30.3,29.67,NW,315,3.7,3.7,28,0.00,,,0.00,TxWx,2014-01-22 20:57:00,
2014-01-22 15:02:00,63.6,30.8,29.66,SW,225,2.5,2.5,29,0.00,,,0.00,TxWx,2014-01-22 21:02:00,
2014-01-22 15:07:00,64.6,31.0,29.66,WNW,293,3.7,4.0,28,0.00,,,0.00,TxWx,2014-01-22 21:07:00,
2014-01-22 15:12:00,63.5,30.2,29.66,South,180,0.6,0.0,28,0.00,,,0.00,TxWx,2014-01-22 21:12:00,
2014-01-22 15:17:00,63.9,30.3,29.66,WNW,293,1.2,1.2,28,0.00,,,0.00,TxWx,2014-01-22 21:17:00,
2014-01-22 15:22:00,63.3,29.6,29.66,SW,225,1.2,1.2,27,0.00,,,0.00,TxWx,2014-01-22 21:22:00,
2014-01-22 15:27:00,63.1,30.8,29.66,ENE,68,1.2,1.2,29,0.00,,,0.00,TxWx,2014-01-22 21:27:00,
2014-01-22 15:32:00,63.1,31.6,29.66,SSE,158,1.2,1.2,30,0.00,,,0.00,TxWx,2014-01-22 21:32:00,
2014-01-22 15:37:00,63.5,31.4,29.65,South,180,1.7,1.7,29,0.00,,,0.00,TxWx,2014-01-22 21:37:00,
2014-01-22 15:42:00,63.4,30.4,29.65,SW,225,2.5,3.0,28,0.00,,,0.00,TxWx,2014-01-22 21:42:00,
2014-01-22 15:47:00,63.9,31.1,29.65,South,180,1.7,1.7,29,0.00,,,0.00,TxWx,2014-01-22 21:47:00,
2014-01-22 15:52:00,63.7,30.4,29.65,NW,315,4.9,4.9,28,0.00,,,0.00,TxWx,2014-01-22 21:52:00,
2014-01-22 15:57:00,64.0,30.7,29.65,West,270,1.7,2.0,28,0.00,,,0.00,TxWx,2014-01-22 21:57:00,
2014-01-22 16:02:00,63.2,30.9,29.65,SW,225,2.5,3.0,29,0.00,,,0.00,TxWx,2014-01-22 22:02:00,
2014-01-22 16:07:00,63.2,31.6,29.66,SW,225,2.5,2.5,30,0.00,,,0.00,TxWx,2014-01-22 22:07:00,
2014-01-22 16:12:00,62.9,31.1,29.66,SE,135,1.7,1.7,30,0.00,,,0.00,TxWx,2014-01-22 22:12:00,
2014-01-22 16:17:00,62.8,31.4,29.66,SSW,203,1.7,1.7,30,0.00,,,0.00,TxWx,2014-01-22 22:17:00,
2014-01-22 16:22:00,62.4,31.3,29.66,WSW,248,1.7,1.7,30,0.00,,,0.00,TxWx,2014-01-22 22:22:00,
2014-01-22 16:27:00,62.3,31.5,29.66,WSW,248,0.6,0.0,31,0.00,,,0.00,TxWx,2014-01-22 22:27:00,
2014-01-22 16:32:00,61.9,31.7,29.66,WSW,248,0.0,0.0,31,0.00,,,0.00,TxWx,2014-01-22 22:32:00,
2014-01-22 16:37:00,61.5,31.5,29.66,South,180,1.7,1.7,32,0.00,,,0.00,TxWx,2014-01-22 22:37:00,
2014-01-22 16:42:00,61.7,31.9,29.66,WSW,248,0.6,0.0,32,0.00,,,0.00,TxWx,2014-01-22 22:42:00,
2014-01-22 16:47:00,62.3,32.0,29.66,SSW,203,0.6,1.0,31,0.00,,,0.00,TxWx,2014-01-22 22:47:00,
2014-01-22 16:52:00,62.2,31.8,29.65,WSW,248,3.1,3.1,31,0.00,,,0.00,TxWx,2014-01-22 22:52:00,
2014-01-22 16:57:00,62.0,31.8,29.65,WSW,248,1.2,1.2,32,0.00,,,0.00,TxWx,2014-01-22 22:57:00,
2014-01-22 17:02:00,61.5,31.5,29.65,WSW,248,1.7,1.7,32,0.00,,,0.00,TxWx,2014-01-22 23:02:00,
2014-01-22 17:07:00,61.1,31.7,29.66,SW,225,1.2,1.2,32,0.00,,,0.00,TxWx,2014-01-22 23:07:00,
2014-01-22 17:12:00,60.6,32.0,29.66,WNW,293,0.6,0.0,33,0.00,,,0.00,TxWx,2014-01-22 23:12:00,
2014-01-22 17:17:00,60.4,31.9,29.66,WSW,248,0.0,0.0,34,0.00,,,0.00,TxWx,2014-01-22 23:17:00,
2014-01-22 17:22:00,60.0,32.1,29.66,WSW,248,0.0,0.0,34,0.00,,,0.00,TxWx,2014-01-22 23:22:00,
2014-01-22 17:27:00,59.4,33.2,29.66,SW,225,0.0,0.0,37,0.00,,,0.00,TxWx,2014-01-22 23:27:00,
2014-01-22 17:32:00,58.4,35.7,29.66,SSW,203,0.0,0.0,42,0.00,,,0.00,TxWx,2014-01-22 23:32:00,
2014-01-22 17:37:00,57.6,34.6,29.66,SW,225,0.0,0.0,42,0.00,,,0.00,TxWx,2014-01-22 23:37:00,
2014-01-22 17:42:00,57.0,35.0,29.66,SW,225,0.0,0.0,43,0.00,,,0.00,TxWx,2014-01-22 23:42:00,
2014-01-22 17:47:00,56.2,35.1,29.65,SSW,203,0.0,0.0,44,0.00,,,0.00,TxWx,2014-01-22 23:47:00,
2014-01-22 17:52:00,55.8,34.8,29.66,SW,225,0.0,0.0,45,0.00,,,0.00,TxWx,2014-01-22 23:52:00,
2014-01-22 17:57:00,55.1,34.7,29.66,SW,225,0.0,0.0,46,0.00,,,0.00,TxWx,2014-01-22 23:57:00,
2014-01-22 18:02:00,54.6,34.0,29.66,SSW,203,0.0,0.0,45,0.00,,,0.00,TxWx,2014-01-23 00:02:00,
2014-01-22 18:07:00,54.5,33.7,29.66,SSW,203,0.0,0.0,45,0.00,,,0.00,TxWx,2014-01-23 00:07:00,
2014-01-22 18:12:00,54.0,34.9,29.66,SW,225,0.0,0.0,48,0.00,,,0.00,TxWx,2014-01-23 00:12:00,
2014-01-22 18:17:00,53.5,34.2,29.66,WSW,248,0.0,0.0,47,0.00,,,0.00,TxWx,2014-01-23 00:17:00,
2014-01-22 18:22:00,52.9,33.0,29.66,SSW,203,0.0,0.0,46,0.00,,,0.00,TxWx,2014-01-23 00:22:00,
2014-01-22 18:27:00,52.4,33.8,29.66,SW,225,0.0,0.0,49,0.00,,,0.00,TxWx,2014-01-23 00:27:00,
2014-01-22 18:32:00,52.2,33.1,29.66,WSW,248,0.0,0.0,47,0.00,,,0.00,TxWx,2014-01-23 00:32:00,
2014-01-22 18:37:00,52.0,32.6,29.67,SSW,203,0.0,0.0,47,0.00,,,0.00,TxWx,2014-01-23 00:37:00,
2014-01-22 18:42:00,52.0,32.0,29.67,SW,225,0.0,0.0,46,0.00,,,0.00,TxWx,2014-01-23 00:42:00,
2014-01-22 18:47:00,51.7,34.0,29.67,SSW,203,0.0,0.0,50,0.00,,,0.00,TxWx,2014-01-23 00:47:00,
2014-01-22 18:53:00,51.1,34.9,29.67,SW,225,0.0,0.0,53,0.00,,,0.00,TxWx,2014-01-23 00:53:00,
2014-01-22 20:15:00,49.5,33.6,29.67,SSW,203,0.0,0.0,54,0.00,,,0.00,TxWx,2014-01-23 02:15:00,
2014-01-22 20:19:00,49.1,33.7,29.67,SW,225,0.0,0.0,55,0.00,,,0.00,TxWx,2014-01-23 02:19:00,
2014-01-22 20:22:00,49.0,33.7,29.67,SSW,203,0.0,0.0,55,0.00,,,0.00,TxWx,2014-01-23 02:22:00,
2014-01-22 20:23:00,48.8,33.7,29.68,SSE,158,0.0,0.0,55,0.00,,,0.00,TxWx,2014-01-23 02:23:00,
2014-01-22 20:24:00,48.8,33.7,29.68,South,180,0.0,0.0,55,0.00,,,0.00,TxWx,2014-01-23 02:24:00,
2014-01-22 20:29:00,48.9,33.7,29.67,SSE,158,0.6,0.0,55,0.00,,,0.00,TxWx,2014-01-23 02:29:00,
2014-01-22 20:34:00,49.7,34.1,29.67,SSE,158,0.6,0.0,54,0.00,,,0.00,TxWx,2014-01-23 02:34:00,
2014-01-22 20:39:00,49.9,34.2,29.67,SSE,158,0.6,1.0,54,0.00,,,0.00,TxWx,2014-01-23 02:39:00,
2014-01-22 20:44:00,50.1,34.5,29.67,South,180,0.6,0.0,54,0.00,,,0.00,TxWx,2014-01-23 02:44:00,
2014-01-22 20:49:00,50.9,35.4,29.68,SW,225,1.2,1.2,55,0.00,,,0.00,TxWx,2014-01-23 02:49:00,
2014-01-22 20:54:00,51.2,35.7,29.67,SSW,203,0.6,1.0,55,0.00,,,0.00,TxWx,2014-01-23 02:54:00,
2014-01-22 20:59:00,51.4,36.0,29.67,SW,225,1.2,1.2,55,0.00,,,0.00,TxWx,2014-01-23 02:59:00,
2014-01-22 21:04:00,51.4,36.3,29.67,South,180,0.0,0.0,56,0.00,,,0.00,TxWx,2014-01-23 03:04:00,
2014-01-22 21:09:00,51.1,36.5,29.67,SSW,203,1.2,1.2,57,0.00,,,0.00,TxWx,2014-01-23 03:09:00,
2014-01-22 21:14:00,51.3,36.9,29.68,SSW,203,1.7,1.7,57,0.00,,,0.00,TxWx,2014-01-23 03:14:00,
2014-01-22 21:19:00,51.2,37.2,29.68,South,180,0.6,0.0,58,0.00,,,0.00,TxWx,2014-01-23 03:19:00,
2014-01-22 21:24:00,51.0,37.5,29.68,SSW,203,0.0,0.0,59,0.00,,,0.00,TxWx,2014-01-23 03:24:00,
2014-01-22 21:29:00,50.7,37.9,29.69,South,180,0.6,0.0,61,0.00,,,0.00,TxWx,2014-01-23 03:29:00,
2014-01-22 21:34:00,50.8,38.3,29.69,SSW,203,0.6,1.0,62,0.00,,,0.00,TxWx,2014-01-23 03:34:00,
2014-01-22 21:39:00,50.8,38.6,29.69,SW,225,0.0,0.0,62,0.00,,,0.00,TxWx,2014-01-23 03:39:00,
2014-01-22 21:44:00,50.5,38.8,29.69,SSW,203,0.0,0.0,64,0.00,,,0.00,TxWx,2014-01-23 03:44:00,
2014-01-22 21:49:00,50.2,38.9,29.69,SSW,203,0.0,0.0,64,0.00,,,0.00,TxWx,2014-01-23 03:49:00,
2014-01-22 21:54:00,50.0,39.0,29.69,SSW,203,0.0,0.0,65,0.00,,,0.00,TxWx,2014-01-23 03:54:00,
2014-01-22 21:59:00,49.6,39.0,29.69,South,180,0.0,0.0,66,0.00,,,0.00,TxWx,2014-01-23 03:59:00,
2014-01-22 22:04:00,49.7,39.4,29.68,SSE,158,0.6,1.0,67,0.00,,,0.00,TxWx,2014-01-23 04:04:00,
2014-01-22 22:09:00,49.9,39.7,29.68,WSW,248,0.0,0.0,68,0.00,,,0.00,TxWx,2014-01-23 04:09:00,
2014-01-22 22:14:00,50.0,39.8,29.69,SSW,203,0.6,1.0,67,0.00,,,0.00,TxWx,2014-01-23 04:14:00,
2014-01-22 22:19:00,49.9,39.9,29.68,West,270,0.0,0.0,68,0.00,,,0.00,TxWx,2014-01-23 04:19:00,
2014-01-22 22:24:00,49.6,39.9,29.69,SW,225,0.0,0.0,69,0.00,,,0.00,TxWx,2014-01-23 04:24:00,
2014-01-22 22:29:00,49.6,40.0,29.69,South,180,0.6,0.0,69,0.00,,,0.00,TxWx,2014-01-23 04:29:00,
2014-01-22 22:34:00,49.9,40.4,29.70,SSW,203,0.6,0.0,69,0.00,,,0.00,TxWx,2014-01-23 04:34:00,
2014-01-22 22:39:00,49.6,40.4,29.70,SW,225,0.0,0.0,70,0.00,,,0.00,TxWx,2014-01-23 04:39:00,
2014-01-22 22:44:00,49.3,40.5,29.70,SSW,203,0.0,0.0,71,0.00,,,0.00,TxWx,2014-01-23 04:44:00,
2014-01-22 22:49:00,49.2,40.6,29.70,SSW,203,0.0,0.0,72,0.00,,,0.00,TxWx,2014-01-23 04:49:00,
2014-01-22 22:54:00,48.7,40.6,29.70,SSW,203,0.0,0.0,73,0.00,,,0.00,TxWx,2014-01-23 04:54:00,
2014-01-22 22:59:00,48.7,40.7,29.70,SSW,203,0.0,0.0,73,0.00,,,0.00,TxWx,2014-01-23 04:59:00,
2014-01-22 23:01:00,48.6,40.7,29.70,South,180,0.0,0.0,74,0.00,,,0.00,TxWx,2014-01-23 05:01:00,
2014-01-22 23:06:00,48.5,40.7,29.69,SSW,203,0.0,0.0,74,0.00,,,0.00,TxWx,2014-01-23 05:06:00,
2014-01-22 23:11:00,48.4,40.9,29.70,SSW,203,0.0,0.0,75,0.00,,,0.00,TxWx,2014-01-23 05:11:00,
2014-01-22 23:16:00,48.4,40.9,29.70,SW,225,0.0,0.0,75,0.00,,,0.00,TxWx,2014-01-23 05:16:00,
2014-01-22 23:21:00,48.1,41.0,29.70,South,180,0.0,0.0,76,0.00,,,0.00,TxWx,2014-01-23 05:21:00,
2014-01-22 23:26:00,48.1,41.1,29.70,South,180,0.0,0.0,76,0.00,,,0.00,TxWx,2014-01-23 05:26:00,
2014-01-22 23:31:00,47.8,41.1,29.70,SSE,158,0.0,0.0,77,0.00,,,0.00,TxWx,2014-01-23 05:31:00,
2014-01-22 23:36:00,47.5,41.0,29.70,South,180,0.0,0.0,78,0.00,,,0.00,TxWx,2014-01-23 05:36:00,
2014-01-22 23:41:00,47.5,40.9,29.70,South,180,0.0,0.0,77,0.00,,,0.00,TxWx,2014-01-23 05:41:00,
2014-01-22 23:46:00,47.4,40.9,29.70,SSW,203,0.0,0.0,78,0.00,,,0.00,TxWx,2014-01-23 05:46:00,
2014-01-22 23:51:00,47.3,41.0,29.70,South,180,0.0,0.0,78,0.00,,,0.00,TxWx,2014-01-23 05:51:00,
2014-01-22 23:56:00,47.3,41.3,29.71,SW,225,0.0,0.0,79,0.00,,,0.00,TxWx,2014-01-23 05:56:00,